Location: Unspecified
(0.0000°N, 0.0000°E)
Time: 12:50:42
(UTC+00:00)

Vanguard 2 - All Passes

Search period start: 07 October 2022 00:00
Search period end: 17 October 2022 00:00
Orbit: 552 x 2934 km, 32.9° (Epoch: 07 October)

Date Brightness Start Highest point End Pass type
(mag) Time Alt. Az. Time Alt. Az. Time Alt. Az.
07 Oct - 07:35:04 10° SW 07:39:13 74° SE 07:45:05 10° ENE daylight
07 Oct - 09:44:23 10° WNW 09:48:41 21° NNW 09:54:35 10° NNE daylight
07 Oct - 14:11:54 10° N 14:17:28 13° NNE 14:23:40 10° NE daylight
07 Oct - 16:20:06 10° NNW 16:33:40 30° NNE 16:47:51 10° E daylight
07 Oct - 18:30:13 10° NW 18:48:04 67° NE 19:02:55 10° ESE visible
07 Oct - 20:43:50 10° WNW 21:00:34 54° SW 21:12:19 10° SE visible
07 Oct - 23:04:44 10° WSW 23:11:54 16° SW 23:17:38 10° S visible
08 Oct - 05:46:50 10° S 05:48:28 12° SE 05:50:08 10° ESE daylight
08 Oct - 07:52:19 10° WSW 07:56:29 59° NNW 08:02:23 10° NE daylight
08 Oct - 10:03:24 10° NW 10:06:40 14° NNW 10:10:40 10° NNE daylight
08 Oct - 14:28:51 10° NNW 14:36:18 15° NNE 14:44:48 10° NE daylight
08 Oct - 16:36:58 10° NNW 16:51:46 37° NNE 17:07:02 10° E daylight
08 Oct - 18:47:30 10° NW 19:05:39 82° NE 19:20:30 10° ESE visible
08 Oct - 21:02:22 10° WNW 21:17:55 42° SW 21:29:06 10° SSE visible
08 Oct - 23:27:00 10° SW 23:29:46 11° SSW 23:32:17 10° SSW visible
09 Oct - 06:02:30 10° SSW 06:05:43 23° SE 06:09:12 10° E daylight
09 Oct - 08:09:58 10° W 08:13:55 33° NNW 08:19:19 10° NE daylight
09 Oct - 14:45:36 10° NNW 14:54:54 19° NNE 15:05:43 10° ENE daylight
09 Oct - 16:53:52 10° NW 17:09:39 47° NNE 17:25:41 10° ESE daylight
09 Oct - 19:05:01 10° WNW 19:23:09 81° SW 19:37:51 10° SE visible
09 Oct - 21:21:25 10° W 21:35:23 32° SW 21:45:45 10° SSE visible
10 Oct - 06:19:06 10° SW 06:22:54 46° SE 06:27:12 10° ENE daylight
10 Oct - 08:28:10 10° WNW 08:31:32 20° NNW 08:35:49 10° NNE daylight
10 Oct - 15:02:17 10° NNW 15:13:14 24° NNE 15:26:06 10° ENE daylight
10 Oct - 17:10:51 10° NW 17:27:22 58° NE 17:43:55 10° ESE daylight
10 Oct - 19:22:48 10° WNW 19:40:36 66° SW 19:54:59 10° SE visible
10 Oct - 21:41:05 10° W 21:53:02 24° SW 22:02:13 10° SSE visible
11 Oct - 06:36:09 10° WSW 06:40:05 83° NW 06:44:40 10° NE daylight
11 Oct - 08:47:25 10° NW 08:49:18 12° NNW 08:51:26 10° N daylight
11 Oct - 13:14:47 10° NNE 13:16:35 10° NNE 13:18:28 10° NNE daylight
11 Oct - 15:18:58 10° NNW 15:31:18 31° NNE 15:45:52 10° E daylight
11 Oct - 17:27:57 10° NW 17:44:58 72° NE 18:01:47 10° ESE daylight
11 Oct - 19:40:55 10° WNW 19:58:05 52° SW 20:11:57 10° SE visible
11 Oct - 22:01:29 10° WSW 22:10:54 18° SSW 22:18:30 10° S visible
12 Oct - 04:46:21 10° S 04:49:10 16° SSE 04:51:45 10° ESE visible
12 Oct - 06:53:39 10° WSW 06:57:22 39° NNW 07:01:41 10° NE daylight
12 Oct - 13:29:42 10° N 13:35:08 13° NNE 13:41:25 10° NE daylight
12 Oct - 15:35:42 10° NNW 15:49:07 39° NE 16:05:03 10° E daylight
12 Oct - 17:45:15 10° NW 18:02:30 88° NE 18:19:21 10° SE visible
12 Oct - 19:59:27 10° W 20:15:38 41° SW 20:28:46 10° SSE visible
12 Oct - 22:22:47 10° SW 22:29:03 14° SSW 22:34:26 10° S visible
13 Oct - 05:02:39 10° SSW 05:06:33 31° SSE 05:10:05 10° E visible
13 Oct - 07:11:40 10° W 07:14:44 21° NNW 07:18:14 10° NNE daylight
13 Oct - 13:45:44 10° N 13:53:25 18° NNE 14:02:47 10° ENE daylight
13 Oct - 15:52:31 10° NW 16:06:46 49° NE 16:23:42 10° ESE daylight
13 Oct - 18:02:45 10° WNW 18:20:00 77° SW 18:36:40 10° SE visible
13 Oct - 20:18:31 10° W 20:33:20 32° SSW 20:45:30 10° SSE visible
13 Oct - 22:46:22 10° SSW 22:47:29 10° SSW 22:48:34 10° SSW visible
14 Oct - 05:19:31 10° SW 05:23:50 64° SE 05:27:45 10° ENE visible
14 Oct - 07:30:51 10° NW 07:32:16 11° NNW 07:33:47 10° N daylight
14 Oct - 14:02:04 10° NNW 14:11:26 23° NNE 14:23:19 10° ENE daylight
14 Oct - 16:09:27 10° NW 16:24:18 62° NE 16:41:54 10° ESE daylight
14 Oct - 18:20:32 10° WNW 18:37:34 62° SW 18:53:48 10° SE visible
14 Oct - 20:38:11 10° W 20:51:16 25° SSW 21:02:08 10° SSE visible
15 Oct - 03:29:10 10° SSW 03:32:20 15° SSE 03:35:00 10° ESE visible
15 Oct - 05:36:49 10° WSW 05:41:01 59° NW 05:44:56 10° NE daylight
15 Oct - 14:18:33 10° NNW 14:29:11 30° NE 14:43:07 10° E daylight
15 Oct - 16:26:32 10° NW 16:41:47 77° NE 16:59:46 10° ESE daylight
15 Oct - 18:38:41 10° WNW 18:55:12 50° SW 19:10:48 10° SE visible
15 Oct - 20:58:27 10° WSW 21:09:27 20° SSW 21:18:44 10° SSE visible
16 Oct - 03:45:20 10° SSW 03:49:57 26° SSE 03:53:32 10° E visible
16 Oct - 05:54:36 10° W 05:58:14 28° NW 06:01:41 10° NNE daylight
16 Oct - 12:31:52 10° NNE 12:34:20 11° NNE 12:37:03 10° NE daylight
16 Oct - 14:35:09 10° NNW 14:46:44 40° NE 15:02:17 10° E daylight
16 Oct - 16:43:49 10° NW 16:59:15 87° SW 17:17:19 10° SE daylight
16 Oct - 18:57:13 10° W 19:12:58 40° SSW 19:27:41 10° SSE visible
16 Oct - 21:19:21 10° SW 21:27:54 16° SSW 21:35:18 10° S visible
